Location: Carrières
(48.9495°N, 2.0407°E)
Time: 20:10:46
(UTC+00:00)

A-11 Canister half - Visible Passes

Search period start: 12 April 2024 00:00
Search period end: 22 April 2024 00:00
Orbit: 1513 x 1687 km, 47.2° (Epoch: 11 April)

Date Brightness Start Highest point End Pass type
(mag) Time Alt. Az. Time Alt. Az. Time Alt. Az.
12 Apr 10.8 20:35:31 10° W 20:41:57 20° SW 20:48:28 10° S visible
13 Apr 10.8 20:12:20 10° W 20:19:04 21° SW 20:25:55 10° S visible
14 Apr 10.8 19:49:10 10° W 19:56:11 22° SW 20:03:20 10° S visible
15 Apr 10.8 19:26:03 10° W 19:33:18 24° SW 19:40:42 10° S visible
16 Apr 10.8 19:02:56 10° W 19:10:25 25° SW 19:18:03 10° S visible
